{"data":{"norad_id":52094,"epoch":"2026-09-18T19:15:38.669760Z","epoch_age_seconds":202735,"freshness":"STALE","line1":"1 52094U 22029G   26261.80253090 -.00000272  00000+0  31006-5 0  9995","line2":"2 52094  53.1587 289.3072 0001276  90.8448 269.2701 15.34383757249986","mean_motion":15.34383757,"eccentricity":0.0001276,"inclination_deg":53.1587,"raan_deg":289.3072,"arg_perigee_deg":90.8448,"mean_anomaly_deg":269.2701,"bstar":3.1006e-6,"rev_number":24998,"period_min":93.84875155453,"perigee_km":461.87862087712,"apogee_km":463.62441562698,"semimajor_km":6840.8885182521,"source":"CELESTRAK","updated_at":"2026-09-20T09:00:39.984610Z"}}